sat.trackr.live / text

‹ back to catalog

GLOBAL-5

NORAD 55983 · 2023-041C

PAYLOAD ACTIVE UNKNOWN

§ Identity

Operator
Country
US
Launch date
2023-03-24
Launch site
RLLB
Launch vehicle
Mass (kg)
RCS (m²)

External: N2YO · Heavens-Above · Gunter

§ Orbital elements

Epoch: 2026-09-21T17:57:50.649696Z

Period
93.64 min
Inclination
42.0019°
Eccentricity
0.0008683
Mean motion
15.37820456 rev/d
Perigee alt
446.6 km
Apogee alt
458.5 km
Semi-major
6,830.7 km
B*
2.3791e-4
RAAN
358.1822°
Arg perigee
321.0958°
Mean anomaly
38.9255°
Rev number
19,680

§ Raw data

GLOBAL-51 55983U 23041C   26264.74850289  .00008795  00000+0  23791-3 0  99962 55983  42.0019 358.1822 0008683 321.0958  38.9255 15.37820456196807

JSON: /api/v1/satellites/55983 · /tle

For live sub-satellite position, see the globe view (requires WebGL).

§ Visibility from observer

Set your observer location to see the next 7 days of passes ≥ 10°. The values pass through the URL so the page stays shareable.

No JS? Fill the form by hand. The geolocation button needs JavaScript.

§ Radio — SatNOGS DB

ModeDescriptionDownlinkUplink
FM Mode U - Transmitter 401.015 MHz

1 transmitter · refreshed weekly from db.satnogs.org